Погода в Ружине

Украина / Житомирская область     49°43′23″N   29°13′16″E
темп.,
°C
ветер,
м/с
пор.,
м/с
влажн.,
%
обл.,
%
осадки,
мм/ч
давл.,
гПа
погр.,
м
21 июня, пн
пн2100:00+18всв39967 0.0 1014206
03:00+17всв369710 0.0 1013136
06:00+17всв24971 0.0 101392
09:00+22всв348398 0.0 1012472
12:00+25вюв3572100 0.1 10121139
15:00+25вюв3475100 0.3 1012610
18:00+25ююв3575100 0.3 1012446
21:00+22ююв228410 0.3 101211
22 июня, вт
вт2200:00+20юв11861 0.0 101311
03:00+19вюв11901 0.0 101311
06:00+19ссв23916 0.0 101347
09:00+24всв4582100 0.0 1013429
12:00+26всв566450 0.0 1013861
15:00+27в666368 0.0 10131027
18:00+26в457342 0.0 1013737
21:00+22в49887 0.0 1014187
23 июня, ср
ср2300:00+20вюв39884 0.0 1014176
03:00+19в3388100 0.0 101548
06:00+19в238599 0.1 101545
09:00+24всв237186 0.1 1015286
12:00+27св456335 0.0 1015853
15:00+29всв56586 0.0 10151056
18:00+27в4771100 0.3 1016817
21:00+23всв358585 0.3 101674
24 июня, чт
чт2400:00+20в36935 0.1 1016106
03:00+19всв229162 0.4 101630
06:00+19всв359387 0.1 1016105
09:00+24всв34795 0.1 1017398
12:00+28в346310 0.0 1016826
15:00+29всв34585 0.0 10161114
18:00+29всв22595 0.0 10161047
21:00+24всв22760 0.0 101611
25 июня, пт
пт2500:00+22всв22870 0.0 101612
03:00+21в22910 0.0 101522
06:00+20ссв12910 0.0 101516
09:00+24вюв45730 0.0 1015355
12:00+28юв23650 0.0 1015966
15:00+29ююв22567 0.3 10141705
18:00+29юв33631 0.0 10141382
21:00+24ююв348011 0.5 101443